KINEIS-2E

Last updated on Thu Aug 20 2026 00:02:53 GMT+0000 (Coordinated Universal Time)

1 62931U 25028D 26231.15701949 .00001019 00000+0 15112-3 0 9991 2 62931 97.8909 281.4403 0001322 77.0730 283.0628 14.77160041 82076
UTC large
Height (km)
Speed (km/s)
/
Latitude / Longitude
Inclination (degrees)
Orbital Period (minutes)
Azimuth
Elevation
Range (km)
Doppler Factor

Next 0 passes for location: London (51.5072 / 0.1276)

No passes found over London.
KINEIS-2E